Вернуться в каталог

THOR BURNER 2 R/B

АктивенSSO
NORAD 6788·ROCKET BODY·🇺🇸 United States

Запущен Aug 17, 1973 с Vandenberg Space Force Base

Loading…

Ближайшие Пролёты (ближайшие 24 часа)

TLE

СвежийSource: Space-Track

Эпоха: Sep 14, 2026, 13:42 UTC

1 06788U 73054B   26257.57107249  .00000048  00000-0  37431-4 0  9999
2 06788  98.6073 122.7592 0028017 157.2160 203.0271 14.26975021758228

Отслеживайте THOR BURNER 2 R/B в реальном времени с AllMySat

Download on the App Store